Погода в Шедьяке

Канада     46°13′12″N   64°32′35″W
темп.,
°C
ветер,
м/с
пор.,
м/с
влажн.,
%
обл.,
%
осадки,
мм/ч
давл.,
гПа
погр.,
м
6 мая, чт
чт600:00+5вюв51093100 1.4 1008403
03:00+4в51296100 5.7 1005610
06:00+4в61396100 6.4 1004655
09:00+4всв5997100 10.5 1002569
12:00+3св4597100 4.1 1002510
15:00+3ссз4697100 5.6 1002419
18:00+3зсз61093100 0.1 1004737
21:00+2зсз61197100 0.3 1007818
7 мая, пт
пт700:00+3сз6138784 0.1 1009853
03:00+3зсз6128877 0.1 1010799
06:00+3зсз3794100 0.1 1011451
09:00+4зсз4884100 0.3 1013654
12:00+6сз3568100 0.0 1014935
15:00+6ссв2476100 0.1 1015337
18:00+7св137591 0.0 1016375
21:00+4ссв22885 0.0 101717
8 мая, сб
сб800:00+3ююв11905 0.0 101810
03:00+2в349292 0.0 101663
06:00+2в4889100 0.0 1016228
09:00+4св51084100 0.0 1015684
12:00+5св71182100 0.1 1013925
15:00+4св81390100 1.1 1010857
18:00+4св101696100 4.2 1006981
21:00+2св111898100 10.6 1003928
9 мая, вс
вс900:00+3св91598100 1.8 1000972
03:00+4ссв91598100 4.3 9981123
06:00+4с101598100 1.6 9981056
09:00+3ссз101597100 3.1 1001973
12:00+4ссз81494100 0.5 10031163
15:00+7ссз6128499 0.8 10041020
18:00+7сз41081100 0.3 1006925
21:00+5зсз368913 0.3 1008110
10 мая, пн
пн1000:00+5з41090100 0.0 1009253
03:00+3з3795100 0.0 1010138
06:00+2зюз349440 0.0 101090
09:00+7з1278100 0.0 1010228
12:00+8ююв1275100 0.1 1009475
15:00+9вюв2376100 0.1 1006646
18:00+8всв3584100 0.1 1005308
21:00+6всв3589100 0.3 1006156